| time (UTC) | temp F | wind direction | speed knots | gust knots | rain 1hr in | rain 24hr in | rain mn in | humidity % | barometer mb |
| 20260506211826 | 72 | 238 | 1.7 | 5.2 | 0.00 | 0.03 | 0.03 | 73 | 1007.1 |
| 20260506211351 | 72 | 121 | 1.7 | 5.2 | 0.00 | 0.03 | 0.03 | 72 | 1007.2 |
| 20260506210815 | 72 | 250 | 1.7 | 7.8 | 0.00 | 0.03 | 0.03 | 71 | 1007.0 |
| 20260506210318 | 72 | 247 | 2.6 | 7.8 | 0.00 | 0.03 | 0.03 | 72 | 1007.1 |
| 20260506205822 | 72 | 51 | 1.7 | 7.8 | 0.00 | 0.03 | 0.03 | 71 | 1007.0 |
| 20260506205345 | 72 | 94 | 1.7 | 5.2 | 0.00 | 0.03 | 0.03 | 71 | 1007.1 |
| 20260506204827 | 72 | 348 | 0.9 | 7.8 | 0.00 | 0.03 | 0.03 | 73 | 1007.1 |
| 20260506204331 | 71 | 25 | 1.7 | 7.8 | 0.00 | 0.03 | 0.03 | 73 | 1007.0 |
| 20260506203815 | 71 | 164 | 1.7 | 5.2 | 0.00 | 0.03 | 0.03 | 73 | 1007.1 |
| 20260506203318 | 71 | 125 | 1.7 | 13.0 | 0.00 | 0.03 | 0.03 | 73 | 1007.0 |
| 20260506202821 | 71 | 298 | 3.5 | 13.0 | 0.00 | 0.03 | 0.03 | 72 | 1006.8 |
| 20260506202346 | 71 | 27 | 2.6 | 9.6 | 0.00 | 0.03 | 0.03 | 74 | 1006.8 |
| 20260506201829 | 70 | 214 | 2.6 | 7.8 | 0.00 | 0.03 | 0.03 | 75 | 1006.8 |
| 20260506201331 | 70 | 169 | 3.5 | 7.8 | 0.00 | 0.03 | 0.03 | 77 | 1006.9 |
| 20260506200833 | 69 | 145 | 1.7 | 7.0 | 0.00 | 0.03 | 0.03 | 77 | 1006.9 |
| 20260506200313 | 68 | 146 | 1.7 | 7.0 | 0.00 | 0.03 | 0.03 | 77 | 1006.9 |
| 20260506195836 | 68 | 165 | 1.7 | 7.8 | 0.00 | 0.03 | 0.03 | 78 | 1007.0 |
| 20260506195339 | 68 | 86 | 2.6 | 7.8 | 0.00 | 0.03 | 0.03 | 78 | 1007.1 |
| 20260506194820 | 68 | 178 | 3.5 | 7.8 | 0.00 | 0.03 | 0.03 | 78 | 1007.2 |
| 20260506194340 | 68 | 163 | 1.7 | 7.0 | 0.00 | 0.03 | 0.03 | 78 | 1007.2 |
| 20260506193822 | 67 | 139 | 1.7 | 7.0 | 0.00 | 0.03 | 0.03 | 78 | 1007.2 |
| 20260506193326 | 67 | 158 | 2.6 | 9.6 | 0.00 | 0.03 | 0.03 | 78 | 1007.4 |
| 20260506192815 | 67 | 158 | 2.6 | 9.6 | 0.00 | 0.03 | 0.03 | 78 | 1007.4 |
| 20260506192320 | 67 | 149 | 0.0 | 3.5 | 0.00 | 0.03 | 0.03 | 79 | 1007.5 |
| 20260506191823 | 67 | 156 | 0.9 | 8.7 | 0.00 | 0.03 | 0.03 | 79 | 1007.7 |
| 20260506191327 | 67 | 167 | 3.5 | 12.2 | 0.00 | 0.03 | 0.03 | 79 | 1007.6 |
| 20260506190847 | 67 | 163 | 0.0 | 12.2 | 0.00 | 0.03 | 0.03 | 79 | 1007.7 |
| 20260506190315 | 67 | 314 | 1.7 | 8.7 | 0.00 | 0.03 | 0.03 | 79 | 1007.7 |
| 20260506185834 | 67 | 121 | 1.7 | 8.7 | 0.00 | 0.03 | 0.03 | 79 | 1007.7 |
| 20260506185316 | 67 | 112 | 2.6 | 7.8 | 0.00 | 0.03 | 0.03 | 79 | 1007.7 |
| 20260506184821 | 66 | 166 | 0.9 | 7.0 | 0.00 | 0.03 | 0.03 | 80 | 1007.6 |
| 20260506184324 | 66 | 309 | 1.7 | 7.8 | 0.00 | 0.03 | 0.03 | 80 | 1007.7 |
| 20260506183813 | 66 | 144 | 2.6 | 7.8 | 0.00 | 0.03 | 0.03 | 80 | 1007.8 |
| 20260506183316 | 66 | 1 | 1.7 | 7.0 | 0.00 | 0.03 | 0.03 | 81 | 1007.9 |
| 20260506182819 | 66 | 200 | 3.5 | 7.0 | 0.00 | 0.03 | 0.03 | 81 | 1007.8 |
| 20260506182324 | 66 | 193 | 2.6 | 8.7 | 0.00 | 0.03 | 0.03 | 81 | 1007.9 |
| 20260506181827 | 66 | 132 | 2.6 | 8.7 | 0.00 | 0.03 | 0.03 | 81 | 1007.9 |
| 20260506181330 | 66 | 113 | 0.9 | 10.4 | 0.00 | 0.03 | 0.03 | 81 | 1008.0 |
| 20260506180834 | 66 | 155 | 1.7 | 10.4 | 0.00 | 0.03 | 0.03 | 81 | 1008.0 |
| 20260506180318 | 66 | 268 | 1.7 | 9.6 | 0.00 | 0.03 | 0.03 | 81 | 1008.0 |
| 20260506175823 | 66 | 94 | 2.6 | 9.6 | 0.00 | 0.03 | 0.03 | 82 | 1008.1 |
| 20260506175326 | 65 | 209 | 0.0 | 8.7 | 0.00 | 0.03 | 0.03 | 82 | 1008.0 |
| 20260506174829 | 65 | 226 | 2.6 | 8.7 | 0.00 | 0.03 | 0.03 | 81 | 1008.1 |
| 20260506174333 | 66 | 158 | 2.6 | 10.4 | 0.00 | 0.03 | 0.03 | 81 | 1008.2 |
| 20260506173814 | 66 | 21 | 3.5 | 10.4 | 0.00 | 0.03 | 0.03 | 81 | 1008.2 |
| 20260506173319 | 66 | 172 | 4.3 | 9.6 | 0.00 | 0.03 | 0.03 | 81 | 1008.2 |
| 20260506172823 | 66 | 124 | 2.6 | 7.8 | 0.00 | 0.03 | 0.03 | 80 | 1008.2 |
| 20260506172342 | 65 | 182 | 2.6 | 12.2 | 0.00 | 0.03 | 0.03 | 80 | 1008.2 |
| 20260506171823 | 65 | 158 | 2.6 | 12.2 | 0.00 | 0.03 | 0.03 | 80 | 1008.2 |
| 20260506171312 | 65 | 168 | 3.5 | 9.6 | 0.01 | 0.03 | 0.03 | 80 | 1008.3 |
| 20260506170816 | 65 | 242 | 3.5 | 8.7 | 0.01 | 0.03 | 0.03 | 80 | 1008.4 |
| 20260506170321 | 66 | 141 | 3.5 | 8.7 | 0.02 | 0.03 | 0.03 | 81 | 1008.5 |
| 20260506165825 | 66 | 114 | 3.5 | 10.4 | 0.02 | 0.03 | 0.03 | 81 | 1008.5 |
| 20260506165347 | 66 | 184 | 3.5 | 10.4 | 0.02 | 0.03 | 0.03 | 81 | 1008.5 |
| 20260506164850 | 66 | 152 | 3.5 | 10.4 | 0.02 | 0.03 | 0.03 | 80 | 1008.5 |
| 20260506164313 | 66 | 182 | 4.3 | 9.6 | 0.03 | 0.03 | 0.03 | 81 | 1008.6 |
| 20260506163837 | 66 | 170 | 1.7 | 10.4 | 0.03 | 0.03 | 0.03 | 81 | 1008.6 |
| 20260506163320 | 66 | 330 | 2.6 | 10.4 | 0.03 | 0.03 | 0.03 | 81 | 1008.5 |
| 20260506162823 | 66 | 96 | 1.7 | 9.6 | 0.03 | 0.03 | 0.03 | 81 | 1008.7 |
| 20260506162326 | 66 | 136 | 4.3 | 9.6 | 0.03 | 0.03 | 0.03 | 81 | 1008.7 |
| 20260506161830 | 66 | 175 | 1.7 | 7.0 | 0.03 | 0.03 | 0.03 | 81 | 1008.7 |
| 20260506161314 | 65 | 162 | 1.7 | 9.6 | 0.02 | 0.02 | 0.02 | 80 | 1008.9 |
| 20260506160817 | 66 | 104 | 2.6 | 9.6 | 0.02 | 0.02 | 0.02 | 79 | 1009.1 |
| 20260506160320 | 66 | 212 | 0.9 | 7.0 | 0.01 | 0.01 | 0.01 | 79 | 1009.4 |
| 20260506155823 | 66 | 245 | 1.7 | 7.0 | 0.01 | 0.01 | 0.01 | 78 | 1009.5 |
| 20260506155327 | 66 | 152 | 1.7 | 9.6 | 0.01 | 0.01 | 0.01 | 77 | 1009.7 |
| 20260506154814 | 67 | 217 | 2.6 | 9.6 | 0.01 | 0.01 | 0.01 | 75 | 1009.7 |
| 20260506154317 | 67 | 113 | 1.7 | 6.1 | 0.00 | 0.00 | 0.00 | 75 | 1009.5 |
| 20260506153822 | 67 | 152 | 0.9 | 6.1 | 0.00 | 0.00 | 0.00 | 74 | 1009.6 |
| 20260506153326 | 67 | 183 | 1.7 | 8.7 | 0.00 | 0.00 | 0.00 | 74 | 1009.5 |
| 20260506152830 | 67 | 105 | 2.6 | 8.7 | 0.00 | 0.00 | 0.00 | 73 | 1009.5 |
| 20260506152312 | 67 | 205 | 2.6 | 7.0 | 0.00 | 0.00 | 0.00 | 73 | 1009.4 |
| 20260506151813 | 67 | 167 | 1.7 | 7.0 | 0.00 | 0.00 | 0.00 | 73 | 1009.4 |
| 20260506151319 | 68 | 158 | 1.7 | 6.1 | 0.00 | 0.00 | 0.00 | 72 | 1009.5 |
| 20260506150822 | 68 | 133 | 2.6 | 6.1 | 0.00 | 0.00 | 0.00 | 71 | 1009.4 |
| 20260506150346 | 68 | 167 | 0.9 | 5.2 | 0.00 | 0.00 | 0.00 | 70 | 1009.5 |
| 20260506145829 | 69 | 129 | 2.6 | 7.8 | 0.00 | 0.00 | 0.00 | 68 | 1009.5 |
| 20260506145315 | 69 | 155 | 0.9 | 7.8 | 0.00 | 0.00 | 0.00 | 68 | 1009.4 |
| 20260506144818 | 69 | 169 | 2.6 | 5.2 | 0.00 | 0.00 | 0.00 | 67 | 1009.5 |
| 20260506144322 | 69 | 125 | 1.7 | 10.4 | 0.00 | 0.00 | 0.00 | 67 | 1009.5 |
| 20260506143826 | 69 | 115 | 2.6 | 10.4 | 0.00 | 0.00 | 0.00 | 66 | 1009.4 |
| 20260506143328 | 69 | 160 | 1.7 | 7.0 | 0.00 | 0.00 | 0.00 | 67 | 1009.5 |
| 20260506142832 | 69 | 169 | 2.6 | 7.0 | 0.00 | 0.00 | 0.00 | 67 | 1009.6 |
| 20260506142316 | 69 | 58 | 1.7 | 11.3 | 0.00 | 0.00 | 0.00 | 67 | 1009.6 |
| 20260506141819 | 69 | 198 | 3.5 | 11.3 | 0.00 | 0.00 | 0.00 | 66 | 1009.7 |
| 20260506141344 | 69 | 172 | 1.7 | 7.8 | 0.00 | 0.00 | 0.00 | 66 | 1009.6 |
| 20260506140826 | 70 | 99 | 1.7 | 7.0 | 0.00 | 0.00 | 0.00 | 65 | 1009.4 |
| 20260506140330 | 70 | 113 | 2.6 | 7.0 | 0.00 | 0.00 | 0.00 | 65 | 1009.5 |
| 20260506135814 | 70 | 131 | 2.6 | 9.6 | 0.00 | 0.00 | 0.00 | 64 | 1009.4 |
| 20260506135316 | 70 | 143 | 1.7 | 9.6 | 0.00 | 0.00 | 0.00 | 65 | 1009.4 |
| 20260506134819 | 70 | 123 | 1.7 | 6.1 | 0.00 | 0.00 | 0.00 | 67 | 1009.5 |
| 20260506134324 | 69 | 151 | 1.7 | 7.0 | 0.00 | 0.00 | 0.00 | 67 | 1009.2 |
| 20260506133827 | 69 | 155 | 1.7 | 7.0 | 0.00 | 0.00 | 0.00 | 68 | 1009.4 |
| 20260506133332 | 68 | 222 | 2.6 | 7.0 | 0.00 | 0.00 | 0.00 | 68 | 1009.4 |
| 20260506132816 | 68 | 117 | 1.7 | 5.2 | 0.00 | 0.00 | 0.00 | 68 | 1009.4 |
| 20260506132318 | 68 | 144 | 0.9 | 6.1 | 0.00 | 0.00 | 0.00 | 68 | 1009.5 |
| 20260506131822 | 68 | 233 | 1.7 | 14.8 | 0.00 | 0.00 | 0.00 | 68 | 1009.5 |
| 20260506131327 | 68 | 233 | 2.6 | 14.8 | 0.00 | 0.00 | 0.00 | 68 | 1009.5 |
| 20260506130829 | 68 | 90 | 2.6 | 10.4 | 0.00 | 0.00 | 0.00 | 68 | 1009.6 |
| 20260506130313 | 68 | 176 | 1.7 | 9.6 | 0.00 | 0.00 | 0.00 | 68 | 1009.7 |
| 20260506125819 | 68 | 11 | 3.5 | 12.2 | 0.00 | 0.00 | 0.00 | 67 | 1009.7 |
| 20260506125322 | 68 | 140 | 3.5 | 12.2 | 0.00 | 0.00 | 0.00 | 68 | 1009.7 |
| 20260506124826 | 68 | 113 | 3.5 | 11.3 | 0.00 | 0.00 | 0.00 | 69 | 1009.7 |
| 20260506124331 | 68 | 198 | 3.5 | 7.8 | 0.00 | 0.00 | 0.00 | 70 | 1009.8 |
| 20260506123816 | 68 | 124 | 2.6 | 8.7 | 0.00 | 0.00 | 0.00 | 71 | 1009.7 |
| 20260506123319 | 68 | 132 | 3.5 | 8.7 | 0.00 | 0.00 | 0.00 | 71 | 1009.8 |
| 20260506122824 | 68 | 159 | 2.6 | 7.8 | 0.00 | 0.00 | 0.00 | 71 | 1009.7 |
| 20260506122329 | 67 | 204 | 2.6 | 9.6 | 0.00 | 0.00 | 0.00 | 72 | 1009.8 |
| 20260506121834 | 67 | 176 | 2.6 | 9.6 | 0.00 | 0.00 | 0.00 | 72 | 1009.6 |
| 20260506121337 | 67 | 146 | 3.5 | 8.7 | 0.00 | 0.00 | 0.00 | 72 | 1009.7 |
| 20260506120819 | 67 | 164 | 2.6 | 7.0 | 0.00 | 0.00 | 0.00 | 73 | 1009.7 |
| 20260506120324 | 67 | 215 | 3.5 | 7.8 | 0.00 | 0.00 | 0.00 | 73 | 1009.6 |
| 20260506115828 | 66 | 153 | 3.5 | 7.8 | 0.00 | 0.00 | 0.00 | 74 | 1009.6 |
| 20260506115331 | 66 | 112 | 0.9 | 5.2 | 0.00 | 0.00 | 0.00 | 75 | 1009.6 |
| 20260506114815 | 66 | 194 | 2.6 | 9.6 | 0.00 | 0.00 | 0.00 | 76 | 1009.7 |
| 20260506114320 | 65 | 145 | 1.7 | 9.6 | 0.00 | 0.00 | 0.00 | 75 | 1009.6 |
| 20260506113823 | 65 | 218 | 1.7 | 11.3 | 0.00 | 0.00 | 0.00 | 75 | 1009.5 |
| 20260506113327 | 65 | 143 | 3.5 | 11.3 | 0.00 | 0.00 | 0.00 | 75 | 1009.6 |
| 20260506112829 | 65 | 140 | 1.7 | 11.3 | 0.00 | 0.00 | 0.00 | 76 | 1009.6 |
| 20260506112332 | 65 | 177 | 2.6 | 7.0 | 0.00 | 0.00 | 0.00 | 76 | 1009.6 |
| 20260506111816 | 65 | 116 | 2.6 | 6.1 | 0.00 | 0.00 | 0.00 | 76 | 1009.5 |
| 20260506111316 | 65 | 157 | 3.5 | 7.0 | 0.00 | 0.00 | 0.00 | 76 | 1009.6 |
| 20260506110838 | 65 | 155 | 1.7 | 7.0 | 0.00 | 0.00 | 0.00 | 77 | 1009.5 |
| 20260506110340 | 65 | 171 | 3.5 | 7.0 | 0.00 | 0.00 | 0.00 | 77 | 1009.6 |
| 20260506105823 | 65 | 153 | 2.6 | 7.0 | 0.00 | 0.00 | 0.00 | 77 | 1009.5 |
| 20260506105327 | 65 | 224 | 3.5 | 10.4 | 0.00 | 0.00 | 0.00 | 77 | 1009.6 |
| 20260506104828 | 65 | 157 | 2.6 | 10.4 | 0.00 | 0.00 | 0.00 | 77 | 1009.6 |
| 20260506104332 | 64 | 221 | 1.7 | 6.1 | 0.00 | 0.00 | 0.00 | 78 | 1009.6 |
| 20260506103836 | 64 | 153 | 0.9 | 6.1 | 0.00 | 0.00 | 0.00 | 78 | 1009.5 |
| 20260506102826 | 64 | 131 | 0.9 | 6.1 | 0.00 | 0.00 | 0.00 | 80 | 1009.6 |
| 20260506102329 | 63 | 162 | 0.0 | 6.1 | 0.00 | 0.00 | 0.00 | 80 | 1009.6 |
| 20260506101813 | 63 | 124 | 0.9 | 6.1 | 0.00 | 0.00 | 0.00 | 80 | 1009.6 |
| 20260506101318 | 63 | 66 | 2.6 | 7.0 | 0.00 | 0.00 | 0.00 | 80 | 1009.6 |
| 20260506100822 | 63 | 159 | 3.5 | 7.0 | 0.00 | 0.00 | 0.00 | 80 | 1009.5 |
| 20260506100325 | 63 | 141 | 1.7 | 5.2 | 0.00 | 0.00 | 0.00 | 80 | 1009.5 |
| 20260506095830 | 63 | 170 | 1.7 | 5.2 | 0.00 | 0.00 | 0.00 | 80 | 1009.5 |
| 20260506095353 | 63 | 159 | 1.7 | 5.2 | 0.00 | 0.00 | 0.00 | 80 | 1009.6 |
| 20260506094815 | 63 | 158 | 1.7 | 5.2 | 0.00 | 0.00 | 0.00 | 80 | 1009.7 |
| 20260506094340 | 63 | 168 | 1.7 | 4.3 | 0.00 | 0.00 | 0.00 | 80 | 1009.7 |
| 20260506093822 | 63 | 241 | 2.6 | 4.3 | 0.00 | 0.00 | 0.00 | 80 | 1009.6 |
| 20260506093328 | 64 | 211 | 1.7 | 4.3 | 0.00 | 0.00 | 0.00 | 80 | 1009.5 |
| 20260506092852 | 64 | 147 | 0.9 | 4.3 | 0.00 | 0.00 | 0.00 | 79 | 1009.5 |
| 20260506092313 | 64 | 160 | 0.9 | 5.2 | 0.00 | 0.00 | 0.00 | 79 | 1009.4 |
| 20260506091817 | 64 | 162 | 1.7 | 5.2 | 0.00 | 0.00 | 0.00 | 79 | 1009.4 |
| 20260506091318 | 64 | 167 | 1.7 | 7.8 | 0.00 | 0.00 | 0.00 | 78 | 1009.5 |
| 20260506090816 | 64 | 157 | 0.9 | 7.8 | 0.00 | 0.00 | 0.00 | 78 | 1009.5 |
| 20260506090339 | 65 | 167 | 1.7 | 7.8 | 0.00 | 0.00 | 0.00 | 78 | 1009.5 |
| 20260506085842 | 65 | 137 | 2.6 | 7.0 | 0.00 | 0.00 | 0.00 | 77 | 1009.5 |
| 20260506085324 | 65 | 94 | 2.6 | 7.8 | 0.00 | 0.00 | 0.00 | 77 | 1009.5 |
| 20260506084828 | 65 | 155 | 3.5 | 7.8 | 0.00 | 0.00 | 0.00 | 77 | 1009.6 |
| 20260506084332 | 65 | 167 | 2.6 | 6.1 | 0.00 | 0.00 | 0.00 | 77 | 1009.6 |
| 20260506083815 | 65 | 137 | 2.6 | 7.8 | 0.00 | 0.00 | 0.00 | 77 | 1009.5 |
| 20260506083318 | 66 | 190 | 3.5 | 9.6 | 0.00 | 0.00 | 0.00 | 77 | 1009.6 |
| 20260506082821 | 66 | 155 | 3.5 | 9.6 | 0.00 | 0.00 | 0.00 | 77 | 1009.5 |
| 20260506082318 | 66 | 155 | 2.6 | 9.6 | 0.00 | 0.00 | 0.00 | 77 | 1009.6 |
| 20260506081822 | 66 | 146 | 2.6 | 5.2 | 0.00 | 0.00 | 0.00 | 77 | 1009.7 |
| 20260506081328 | 66 | 148 | 2.6 | 8.7 | 0.00 | 0.00 | 0.00 | 77 | 1009.7 |
| 20260506080831 | 66 | 172 | 4.3 | 8.7 | 0.00 | 0.00 | 0.00 | 77 | 1009.7 |
| 20260506080315 | 66 | 248 | 1.7 | 7.0 | 0.00 | 0.00 | 0.00 | 76 | 1009.7 |
| 20260506073313 | 66 | 152 | 1.7 | 7.0 | 0.00 | 0.00 | 0.00 | 76 | 1009.7 |
| 20260506072815 | 66 | 157 | 2.6 | 7.0 | 0.00 | 0.00 | 0.00 | 76 | 1009.7 |
| 20260506072320 | 66 | 159 | 2.6 | 5.2 | 0.00 | 0.00 | 0.00 | 76 | 1009.7 |
| 20260506071824 | 66 | 179 | 1.7 | 5.2 | 0.00 | 0.00 | 0.00 | 76 | 1009.8 |
| 20260506071347 | 66 | 226 | 1.7 | 7.0 | 0.00 | 0.00 | 0.00 | 76 | 1009.8 |
| 20260506070829 | 66 | 161 | 1.7 | 7.0 | 0.00 | 0.00 | 0.00 | 76 | 1009.9 |
| 20260506070334 | 66 | 153 | 0.9 | 4.3 | 0.00 | 0.00 | 0.00 | 76 | 1009.9 |
| 20260506062342 | 66 | 153 | 0.0 | 6.1 | 0.00 | 0.00 | 0.00 | 75 | 1010.1 |
| 20260506061824 | 67 | 154 | 1.7 | 6.1 | 0.00 | 0.00 | 0.00 | 75 | 1010.0 |
| 20260506061326 | 67 | 148 | 0.9 | 5.2 | 0.00 | 0.00 | 0.00 | 75 | 1009.9 |
| 20260506060831 | 67 | 171 | 0.9 | 5.2 | 0.00 | 0.00 | 0.00 | 75 | 1009.9 |
| 20260506060314 | 67 | 172 | 0.9 | 5.2 | 0.00 | 0.00 | 0.00 | 74 | 1009.9 |
| 20260506051327 | 68 | 144 | 2.6 | 7.0 | 0.00 | 0.00 | 0.00 | 73 | 1010.2 |
| 20260506050830 | 68 | 182 | 2.6 | 7.0 | 0.00 | 0.00 | 0.00 | 73 | 1010.3 |
| 20260506050315 | 68 | 176 | 2.6 | 7.8 | 0.00 | 0.00 | 0.00 | 72 | 1010.3 |
| 20260506044825 | 68 | 204 | 2.6 | 9.6 | 0.00 | 0.00 | 0.00 | 71 | 1010.3 |
| 20260506044330 | 68 | 194 | 2.6 | 9.6 | 0.00 | 0.00 | 0.00 | 70 | 1010.3 |
| 20260506043813 | 68 | 193 | 3.5 | 9.6 | 0.00 | 0.00 | 0.00 | 70 | 1010.3 |
| 20260506043318 | 68 | 195 | 3.5 | 10.4 | 0.00 | 0.00 | 0.00 | 70 | 1010.3 |
| 20260506042841 | 69 | 148 | 4.3 | 10.4 | 0.00 | 0.00 | 0.00 | 70 | 1010.3 |
| 20260506042323 | 69 | 217 | 3.5 | 9.6 | 0.00 | 0.00 | 0.00 | 69 | 1010.4 |
| 20260506041826 | 68 | 166 | 3.5 | 8.7 | 0.00 | 0.00 | 0.00 | 69 | 1010.5 |
| 20260506041328 | 68 | 163 | 3.5 | 7.8 | 0.00 | 0.00 | 0.00 | 69 | 1010.4 |
| 20260506040833 | 68 | 160 | 0.9 | 5.2 | 0.00 | 0.00 | 0.00 | 69 | 1010.4 |
| 20260506040314 | 68 | 170 | 2.6 | 7.8 | 0.00 | 0.00 | 0.00 | 69 | 1010.4 |
| 20260506035816 | 68 | 191 | 2.6 | 7.8 | 0.00 | 0.00 | 0.00 | 69 | 1010.3 |
| 20260506035332 | 68 | 247 | 1.7 | 7.8 | 0.00 | 0.00 | 0.00 | 68 | 1010.3 |
| 20260506034834 | 68 | 232 | 2.6 | 7.8 | 0.00 | 0.00 | 0.00 | 68 | 1010.2 |
| 20260506034318 | 68 | 167 | 1.7 | 7.8 | 0.00 | 0.00 | 0.00 | 68 | 1010.3 |
| 20260506033822 | 68 | 214 | 2.6 | 7.8 | 0.00 | 0.00 | 0.00 | 68 | 1010.3 |
| 20260506033326 | 68 | 203 | 2.6 | 7.8 | 0.00 | 0.00 | 0.00 | 67 | 1010.2 |
| 20260506032830 | 69 | 160 | 3.5 | 7.8 | 0.00 | 0.00 | 0.00 | 67 | 1010.2 |
| 20260506032315 | 69 | 133 | 2.6 | 7.8 | 0.00 | 0.00 | 0.00 | 67 | 1010.3 |
| 20260506031817 | 69 | 213 | 4.3 | 9.6 | 0.00 | 0.00 | 0.00 | 66 | 1010.3 |
| 20260506031320 | 69 | 160 | 2.6 | 9.6 | 0.00 | 0.00 | 0.00 | 66 | 1010.3 |
| 20260506030823 | 69 | 174 | 2.6 | 7.8 | 0.00 | 0.00 | 0.00 | 66 | 1010.3 |
| 20260506030327 | 69 | 150 | 0.9 | 8.7 | 0.00 | 0.00 | 0.00 | 66 | 1010.3 |
| 20260506025843 | 69 | 196 | 2.6 | 8.7 | 0.00 | 0.00 | 0.00 | 65 | 1010.3 |
| 20260506025327 | 69 | 126 | 2.6 | 10.4 | 0.00 | 0.00 | 0.00 | 65 | 1010.3 |
| 20260506024814 | 69 | 226 | 1.7 | 10.4 | 0.00 | 0.00 | 0.00 | 65 | 1010.4 |
| 20260506024338 | 69 | 210 | 3.5 | 7.8 | 0.00 | 0.00 | 0.00 | 64 | 1010.3 |
| 20260506023821 | 69 | 167 | 2.6 | 12.2 | 0.00 | 0.00 | 0.00 | 64 | 1010.4 |
| 20260506023324 | 69 | 145 | 3.5 | 12.2 | 0.00 | 0.00 | 0.00 | 64 | 1010.4 |
| 20260506022828 | 69 | 185 | 3.5 | 8.7 | 0.00 | 0.00 | 0.00 | 63 | 1010.4 |
| 20260506022331 | 69 | 147 | 4.3 | 8.7 | 0.00 | 0.00 | 0.00 | 63 | 1010.3 |
| 20260506021814 | 69 | 186 | 3.5 | 9.6 | 0.00 | 0.00 | 0.00 | 63 | 1010.3 |
| 20260506021339 | 70 | 245 | 3.5 | 9.6 | 0.00 | 0.00 | 0.00 | 63 | 1010.2 |
| 20260506020820 | 70 | 135 | 3.5 | 8.7 | 0.00 | 0.00 | 0.00 | 63 | 1010.3 |
| 20260506020322 | 70 | 219 | 2.6 | 7.8 | 0.00 | 0.00 | 0.00 | 62 | 1010.2 |
| 20260506015844 | 70 | 210 | 2.6 | 7.8 | 0.00 | 0.00 | 0.00 | 62 | 1010.1 |
| 20260506015327 | 70 | 177 | 2.6 | 7.0 | 0.00 | 0.00 | 0.00 | 62 | 1010.1 |
| 20260506014832 | 70 | 169 | 1.7 | 7.0 | 0.00 | 0.00 | 0.00 | 61 | 1010.1 |
| 20260506014319 | 70 | 169 | 2.6 | 7.8 | 0.00 | 0.00 | 0.00 | 61 | 1010.1 |
| 20260506013842 | 71 | 165 | 1.7 | 7.8 | 0.00 | 0.00 | 0.00 | 60 | 1010.0 |
| 20260506013326 | 71 | 168 | 3.5 | 8.7 | 0.00 | 0.00 | 0.00 | 60 | 1009.9 |
| 20260506012829 | 71 | 171 | 3.5 | 8.7 | 0.00 | 0.00 | 0.00 | 59 | 1009.9 |
| 20260506012331 | 72 | 224 | 4.3 | 7.8 | 0.00 | 0.00 | 0.00 | 58 | 1009.8 |
| 20260506011815 | 72 | 176 | 3.5 | 7.8 | 0.00 | 0.00 | 0.00 | 57 | 1009.9 |
| 20260506011321 | 72 | 153 | 2.6 | 7.8 | 0.00 | 0.00 | 0.00 | 55 | 1009.7 |
| 20260506010824 | 73 | 150 | 1.7 | 9.6 | 0.00 | 0.00 | 0.00 | 54 | 1009.6 |
| 20260506010350 | 73 | 186 | 3.5 | 9.6 | 0.00 | 0.00 | 0.00 | 53 | 1009.6 |
| 20260506005812 | 74 | 152 | 2.6 | 8.7 | 0.00 | 0.00 | 0.00 | 51 | 1009.5 |
| 20260506005316 | 74 | 122 | 4.3 | 8.7 | 0.00 | 0.00 | 0.00 | 50 | 1009.6 |
| 20260506004817 | 74 | 171 | 3.5 | 7.8 | 0.00 | 0.00 | 0.00 | 48 | 1009.5 |
| 20260506004323 | 75 | 168 | 1.7 | 9.6 | 0.00 | 0.00 | 0.00 | 47 | 1009.5 |
| 20260506003825 | 75 | 166 | 3.5 | 9.6 | 0.00 | 0.00 | 0.00 | 47 | 1009.4 |
| 20260506003322 | 75 | 170 | 2.6 | 9.6 | 0.00 | 0.00 | 0.00 | 46 | 1009.4 |
| 20260506002826 | 75 | 128 | 3.5 | 9.6 | 0.00 | 0.00 | 0.00 | 46 | 1009.3 |
| 20260506002330 | 75 | 151 | 2.6 | 5.2 | 0.00 | 0.00 | 0.00 | 45 | 1009.2 |
| 20260506001834 | 76 | 179 | 1.7 | 6.1 | 0.00 | 0.00 | 0.00 | 45 | 1009.1 |
| 20260506001316 | 76 | 157 | 3.5 | 13.9 | 0.00 | 0.00 | 0.00 | 44 | 1009.0 |
| 20260506000820 | 76 | 160 | 4.3 | 13.9 | 0.00 | 0.00 | 0.00 | 44 | 1008.9 |
| 20260506000345 | 76 | 206 | 3.5 | 9.6 | 0.00 | 0.00 | 0.00 | 44 | 1008.9 |
| 20260505235828 | 76 | 205 | 2.6 | 9.6 | 0.00 | 0.00 | 0.00 | 44 | 1008.9 |
| 20260505235312 | 76 | 17 | 5.2 | 9.6 | 0.00 | 0.00 | 0.00 | 43 | 1008.8 |
| 20260505234816 | 77 | 172 | 3.5 | 7.8 | 0.00 | 0.00 | 0.00 | 43 | 1008.9 |
| 20260505234320 | 77 | 177 | 3.5 | 9.6 | 0.00 | 0.00 | 0.00 | 43 | 1008.9 |
| 20260505233824 | 77 | 212 | 4.3 | 9.6 | 0.00 | 0.00 | 0.00 | 43 | 1008.8 |
| 20260505233327 | 77 | 215 | 2.6 | 7.8 | 0.00 | 0.00 | 0.00 | 43 | 1008.9 |
| 20260505232829 | 78 | 203 | 4.3 | 9.6 | 0.00 | 0.00 | 0.00 | 42 | 1008.8 |
| 20260505232314 | 78 | 167 | 2.6 | 7.8 | 0.00 | 0.00 | 0.00 | 42 | 1008.8 |
| 20260505231818 | 78 | 150 | 3.5 | 8.7 | 0.00 | 0.00 | 0.00 | 41 | 1008.7 |
| 20260505231321 | 78 | 213 | 2.6 | 8.7 | 0.00 | 0.00 | 0.00 | 41 | 1008.6 |
| 20260505230827 | 79 | 150 | 3.5 | 11.3 | 0.00 | 0.00 | 0.00 | 41 | 1008.7 |
| 20260505230312 | 79 | 155 | 3.5 | 11.3 | 0.00 | 0.00 | 0.00 | 41 | 1008.6 |
| 20260505225816 | 79 | 99 | 2.6 | 11.3 | 0.00 | 0.00 | 0.00 | 41 | 1008.6 |
| 20260505225320 | 79 | 154 | 3.5 | 15.6 | 0.00 | 0.00 | 0.00 | 41 | 1008.5 |
| 20260505224824 | 79 | 153 | 5.2 | 15.6 | 0.00 | 0.00 | 0.00 | 41 | 1008.5 |
| 20260505224329 | 80 | 139 | 4.3 | 11.3 | 0.00 | 0.00 | 0.00 | 41 | 1008.5 |
| 20260505223812 | 80 | 124 | 6.1 | 11.3 | 0.00 | 0.00 | 0.00 | 40 | 1008.5 |
| 20260505223316 | 80 | 224 | 3.5 | 11.3 | 0.00 | 0.00 | 0.00 | 41 | 1008.6 |
| 20260505222838 | 80 | 150 | 5.2 | 11.3 | 0.00 | 0.00 | 0.00 | 41 | 1008.6 |
| 20260505222321 | 80 | 146 | 2.6 | 7.8 | 0.00 | 0.00 | 0.00 | 41 | 1008.7 |
| 20260505221846 | 80 | 112 | 4.3 | 7.8 | 0.00 | 0.00 | 0.00 | 41 | 1008.7 |
| 20260505221330 | 80 | 141 | 2.6 | 8.7 | 0.00 | 0.00 | 0.00 | 40 | 1008.7 |
| 20260505220813 | 80 | 330 | 4.3 | 13.9 | 0.00 | 0.00 | 0.00 | 40 | 1008.7 |
| 20260505220317 | 81 | 128 | 6.1 | 13.9 | 0.00 | 0.00 | 0.00 | 39 | 1008.6 |
| 20260505215842 | 81 | 124 | 5.2 | 12.2 | 0.00 | 0.00 | 0.00 | 39 | 1008.5 |
| 20260505215346 | 82 | 278 | 3.5 | 9.6 | 0.00 | 0.00 | 0.00 | 39 | 1008.4 |
| 20260505214830 | 82 | 155 | 4.3 | 12.2 | 0.00 | 0.00 | 0.00 | 39 | 1008.4 |
| 20260505214315 | 83 | 148 | 3.5 | 12.2 | 0.00 | 0.00 | 0.00 | 38 | 1008.4 |
| 20260505213819 | 83 | 149 | 2.6 | 7.0 | 0.00 | 0.00 | 0.00 | 38 | 1008.6 |
| 20260505213324 | 83 | 145 | 1.7 | 13.0 | 0.00 | 0.00 | 0.00 | 39 | 1008.5 |
| 20260505212827 | 82 | 117 | 4.3 | 13.0 | 0.00 | 0.00 | 0.00 | 37 | 1008.5 |
| 20260505212311 | 82 | 116 | 4.3 | 13.0 | 0.00 | 0.00 | 0.00 | 36 | 1008.4 |